Location: Aulnoy
(48.8410°N, 3.0967°E)
Time: 07:29:56
(UTC+00:00)

BlueWalker 3 - Visible Passes

Search period start: 27 February 2024 00:00
Search period end: 08 March 2024 00:00
Orbit: 486 x 500 km, 53.2° (Epoch: 26 February)

Date Brightness Start Highest point End Pass type
(mag) Time Alt. Az. Time Alt. Az. Time Alt. Az.
27 Feb 2.2 19:11:23 10° WNW 19:15:05 52° NNE 19:15:48 44° NE visible
27 Feb 5.0 20:49:45 10° WNW 20:50:17 13° WNW 20:50:17 13° WNW visible
28 Feb 2.3 18:47:31 10° WNW 18:51:14 51° NNE 18:52:59 27° ENE visible
28 Feb 4.2 20:25:53 10° WNW 20:27:28 23° W 20:27:28 23° W visible
29 Feb 2.3 18:23:39 10° WNW 18:27:21 51° NNE 18:30:12 16° E visible
29 Feb 3.1 20:02:00 10° WNW 20:04:41 39° W 20:04:41 39° W visible
01 Mar 2.3 17:59:45 10° WNW 18:03:28 50° NNE 18:07:09 10° E visible
01 Mar 2.2 19:38:06 10° WNW 19:41:49 55° SSW 19:41:55 54° SSW visible
02 Mar 2.3 19:14:12 10° WNW 19:17:54 56° SSW 19:19:13 35° SSE visible
03 Mar 2.3 18:50:16 10° WNW 18:53:59 58° SSW 18:56:35 18° SE visible
03 Mar 4.8 20:30:14 10° WSW 20:31:04 11° WSW 20:31:04 11° WSW visible
04 Mar 2.3 18:26:18 10° WNW 18:30:03 60° SSW 18:33:46 10° SE visible
04 Mar 4.6 20:06:09 10° WSW 20:07:40 12° SW 20:08:31 11° SW visible
05 Mar 2.3 18:02:21 10° WNW 18:06:06 62° SSW 18:09:48 10° SE visible
05 Mar 4.6 19:42:05 10° WSW 19:43:43 12° SW 19:45:22 10° SSW visible
06 Mar 4.7 19:17:59 10° WSW 19:19:46 13° SW 19:21:33 10° SSW visible
07 Mar 4.7 18:53:53 10° W 18:55:48 13° SW 18:57:41 10° SSW visible
